H1 CPF 2 NER 2024 7 19 9 201 01 glonass138 H2 1805301 9138 43508 2024 7 19 0 0 0 2024 7 22 23 45 0 900 1 1 0 0 0 1 H9 10 0 60510 0.00000 0 14118473.694 -13278609.770 16579948.403 10 0 60510 900.00000 0 15829300.638 -14111166.121 14168959.305 10 0 60510 1800.00000 0 17191547.444 -14931812.728 11482610.568 10 0 60510 2700.00000 0 18189943.736 -15681210.963 8573049.081 10 0 60510 3600.00000 0 18822534.301 -16299968.556 5496793.047 10 0 60510 4500.00000 0 19100550.811 -16731286.597 2313633.301 10 0 60510 5400.00000 0 19047740.411 -16923515.292 -914532.279 10 0 60510 6300.00000 0 18699179.739 -16832509.440 -4124908.145 10 0 60510 7200.00000 0 18099624.857 -16423682.796 -7255029.938 10 0 60510 8100.00000 0 17301467.375 -15673673.084 -10243987.982 10 0 60510 9000.00000 0 16362384.064 -14571545.948 -13033620.664 10 0 60510 9900.00000 0 15342780.047 -13119485.663 -15569653.406 10 0 60510 10800.00000 0 14303134.439 -11332942.208 -17802760.246 10 0 60510 11700.00000 0 13301361.533 -9240227.600 -19689526.897 10 0 60510 12600.00000 0 12390299.496 -6881577.655 -21193296.203 10 0 60510 13500.00000 0 11615432.910 -4307717.974 -22284879.660 10 0 60510 14400.00000 0 11012945.186 -1577993.646 -22943121.426 10 0 60510 15300.00000 0 10608182.693 1241859.483 -23155304.364 10 0 60510 16200.00000 0 10414594.769 4082209.395 -22917390.861 10 0 60510 17100.00000 0 10433193.508 6872184.858 -22234094.409 10 0 60510 18000.00000 0 10652555.286 9542384.612 -21118781.116 10 0 60510 18900.00000 0 11049363.070 12027526.803 -19593203.589 10 0 60510 19800.00000 0 11589465.914 14268929.250 -17687072.694 10 0 60510 20700.00000 0 12229410.351 16216718.320 -15437475.714 10 0 60510 21600.00000 0 12918378.580 17831675.542 -12888152.345 10 0 60510 22500.00000 0 13600451.388 19086646.305 -10088642.573 10 0 60510 23400.00000 0 14217100.100 19967453.124 -7093323.025 10 0 60510 24300.00000 0 14709802.247 20473276.761 -3960350.492 10 0 60510 25200.00000 0 15022670.517 20616490.616 -750533.146 10 0 60510 26100.00000 0 15104983.950 20421956.674 2473848.545 10 0 60510 27000.00000 0 14913514.540 19925813.739 5650248.286 10 0 60510 27900.00000 0 14414550.967 19173809.847 8717064.388 10 0 60510 28800.00000 0 13585533.979 18219249.738 11614830.689 10 0 60510 29700.00000 0 12416234.214 17120644.147 14287365.045 10 0 60510 30600.00000 0 10909422.430 15939159.962 16682853.441 10 0 60510 31500.00000 0 9081003.282 14735978.371 18754849.075 10 0 60510 32400.00000 0 6959606.103 13569671.708 20463167.670 10 0 60510 33300.00000 0 4585648.632 12493708.640 21774662.247 10 0 60510 34200.00000 0 2009911.442 11554191.892 22663862.973 10 0 60510 35100.00000 0 -708319.046 10787922.773 23113470.229 10 0 60510 36000.00000 0 -3503463.289 10220873.198 23114691.682 10 0 60510 36900.00000 0 -6306126.700 9867128.901 22667416.962 10 0 60510 37800.00000 0 -9045741.688 9728348.048 21780226.363 10 0 60510 38700.00000 0 -11653265.351 9793758.038 20470232.927 10 0 60510 39600.00000 0 -14063821.848 10040690.961 18762760.216 10 0 60510 40500.00000 0 -16219180.530 10435635.695 16690861.074 10 0 60510 41400.00000 0 -18069967.263 10935762.944 14294685.642 10 0 60510 42300.00000 0 -19577517.050 11490859.541 11620709.901 10 0 60510 43200.00000 0 -20715290.675 12045590.827 8720838.797 10 0 60510 44100.00000 0 -21469796.027 12541995.751 5651400.761 10 0 60510 45000.00000 0 -21840975.308 12922109.059 2472052.854 10 0 60510 45900.00000 0 -21842041.797 13130599.143 -755382.081 10 0 60510 46800.00000 0 -21498773.022 13117309.049 -3968123.257 10 0 60510 47700.00000 0 -20848290.313 12839591.915 -7103660.484 10 0 60510 48600.00000 0 -19937376.667 12264340.670 -10100978.594 10 0 60510 49500.00000 0 -18820404.502 11369624.681 -12901752.927 10 0 60510 50400.00000 0 -17556961.474 10145862.758 -15451491.543 10 0 60510 51300.00000 0 -16209275.479 8596481.696 -17700601.195 10 0 60510 52200.00000 0 -14839548.071 6738031.363 -19605355.673 10 0 60510 53100.00000 0 -13507309.449 4599750.547 -21128747.431 10 0 60510 54000.00000 0 -12266906.932 2222601.074 -22241206.011 10 0 60510 54900.00000 0 -11165232.527 -342190.037 -22921169.532 10 0 60510 55800.00000 0 -10239785.040 -3035019.876 -23155498.650 10 0 60510 56700.00000 0 -9517147.560 -5790151.942 -22939725.582 10 0 60510 57600.00000 0 -9011943.469 -8538218.416 -22278133.990 10 0 60510 58500.00000 0 -8726313.795 -11208878.615 -21183668.798 10 0 60510 59400.00000 0 -8649936.693 -13733523.528 -19677678.193 10 0 60510 60300.00000 0 -8760587.067 -16047914.579 -17789493.176 10 0 60510 61200.00000 0 -9025211.668 -18094647.504 -15555853.066 10 0 60510 62100.00000 0 -9401473.434 -19825339.672 -13020188.227 10 0 60510 63000.00000 0 -9839699.185 -21202450.655 -10231773.952 10 0 60510 63900.00000 0 -10285147.911 -22200661.186 -7244771.958 10 0 60510 64800.00000 0 -10680503.492 -22807754.025 -4117178.090 10 0 60510 65700.00000 0 -10968486.264 -23024961.072 -909696.657 10 0 60510 66600.00000 0 -11094472.971 -22866763.313 2315436.650 10 0 60510 67500.00000 0 -11009014.248 -22360153.062 5495660.400 10 0 60510 68400.00000 0 -10670143.223 -21543390.374 8569298.191 10 0 60510 69300.00000 0 -10045377.622 -20464306.569 11476751.076 10 0 60510 70200.00000 0 -9113330.680 -19178226.628 14161648.688 10 0 60510 71100.00000 0 -7864862.561 -17745597.896 16571937.021 10 0 60510 72000.00000 0 -6303723.270 -16229424.641 18660882.212 10 0 60510 72900.00000 0 -4446659.167 -14692615.778 20387971.401 10 0 60510 73800.00000 0 -2322977.511 -13195356.463 21719693.864 10 0 60510 74700.00000 0 26414.111 -11792613.048 22630187.860 10 0 60510 75600.00000 0 2550454.917 -10531875.123 23101741.233 10 0 60510 76500.00000 0 5189806.005 -9451228.431 23125136.402 10 0 60510 77400.00000 0 7879077.033 -8577838.710 22699833.197 10 0 60510 78300.00000 0 10549313.583 -7926909.385 21833985.818 10 0 60510 79200.00000 0 13130643.344 -7501156.501 20544293.117 10 0 60510 80100.00000 0 15554972.376 -7290822.817 18855684.363 10 0 60510 81000.00000 0 17758620.298 -7274230.531 16800845.653 10 0 60510 81900.00000 0 19684785.339 -7418849.666 14419595.076 10 0 60510 82800.00000 0 21285736.778 -7682837.389 11758117.762 10 0 60510 83700.00000 0 22524643.236 -8016983.598 8868074.760 10 0 60510 84600.00000 0 23376960.149 -8366980.727 5805602.406 10 0 60510 85500.00000 0 23831317.911 -8675921.621 2630221.345 10 0 60511 0.00000 0 23889873.090 -8886919.350 -596323.264 10 0 60511 900.00000 0 23568107.639 -8945737.336 -3811269.106 10 0 60511 1800.00000 0 22894084.392 -8803317.055 -6952063.092 10 0 60511 2700.00000 0 21907190.543 -8418095.383 -9957587.742 10 0 60511 3600.00000 0 20656422.207 -7758011.735 -12769358.391 10 0 60511 4500.00000 0 19198283.018 -6802118.796 -15332668.615 10 0 60511 5400.00000 0 17594385.952 -5541727.363 -17597660.468 10 0 60511 6300.00000 0 15908860.052 -3981035.652 -19520298.108 10 0 60511 7200.00000 0 14205672.007 -2137215.580 -21063225.591 10 0 60511 8100.00000 0 12545975.517 -39951.389 -22196492.159 10 0 60511 9000.00000 0 10985600.045 2269550.735 -22898131.188 10 0 60511 9900.00000 0 9572784.196 4740041.142 -23154582.057 10 0 60511 10800.00000 0 8346248.242 7312132.023 -22960947.324 10 0 60511 11700.00000 0 7333685.764 9920550.445 -22321080.932 10 0 60511 12600.00000 0 6550736.540 12496645.598 -21247506.307 10 0 60511 13500.00000 0 6000482.349 14971046.226 -19761166.463 10 0 60511 14400.00000 0 5673485.423 17276358.162 -17891011.369 10 0 60511 15300.00000 0 5548366.461 19349790.108 -15673430.778 10 0 60511 16200.00000 0 5592896.515 21135598.970 -13151543.706 10 0 60511 17100.00000 0 5765555.592 22587253.551 -10374358.334 10 0 60511 18000.00000 0 6017491.255 23669227.074 -7395818.671 10 0 60511 18900.00000 0 6294793.821 24358344.552 -4273756.496 10 0 60511 19800.00000 0 6540991.500 24644629.571 -1068768.884 10 0 60511 20700.00000 0 6699659.667 24531615.902 2156956.785 10 0 60511 21600.00000 0 6717033.717 24036111.799 5340847.515 10 0 60511 22500.00000 0 6544514.926 23187427.596 8421155.704 10 0 60511 23400.00000 0 6140963.288 22026099.647 11338152.965 10 0 60511 24300.00000 0 5474680.337 20602164.575 14035283.790 10 0 60511 25200.00000 0 4524998.019 18973056.403 16460256.984 10 0 60511 26100.00000 0 3283406.241 17201214.686 18566054.061 10 0 60511 27000.00000 0 1754170.923 15351503.565 20311835.659 10 0 60511 27900.00000 0 -45584.315 13488549.244 21663728.994 10 0 60511 28800.00000 0 -2086337.521 11674106.598 22595481.703 10 0 60511 29700.00000 0 -4327151.084 9964564.147 23088969.937 10 0 60511 30600.00000 0 -6717138.359 8408690.776 23134551.255 10 0 60511 31500.00000 0 -9197354.827 7045717.496 22731255.580 10 0 60511 32400.00000 0 -11703036.774 5903833.633 21886810.388 10 0 60511 33300.00000 0 -14166095.970 4999159.689 20617499.168 10 0 60511 34200.00000 0 -16517767.869 4335239.452 18947855.195 10 0 60511 35100.00000 0 -18691304.235 3903072.360 16910195.605 10 0 60511 36000.00000 0 -20624598.724 3681684.656 14544003.771 10 0 60511 36900.00000 0 -22262636.258 3639215.338 11895170.938 10 0 60511 37800.00000 0 -23559663.894 3734471.148 9015110.951 10 0 60511 38700.00000 0 -24480992.059 3918884.974 5959764.591 10 0 60511 39600.00000 0 -25004350.172 4138794.676 2788512.557 10 0 60511 40500.00000 0 -25120739.159 4337945.504 -436981.746 10 0 60511 41400.00000 0 -24834744.440 4460109.427 -3653976.713 10 0 60511 42300.00000 0 -24164295.801 4451709.424 -6799880.195 10 0 60511 43200.00000 0 -23139884.051 4264336.346 -9813475.489 10 0 60511 44100.00000 0 -21803267.401 3857050.376 -12636120.789 10 0 60511 45000.00000 0 -20205722.427 3198368.258 -15212897.760 10 0 60511 45900.00000 0 -18405913.566 2267850.866 -17493685.975 10 0 60511 46800.00000 0 -16467471.391 1057222.752 -19434141.767 10 0 60511 47700.00000 0 -14456382.055 -429024.674 -20996562.092 10 0 60511 48600.00000 0 -12438297.993 -2173572.663 -22150616.653 10 0 60511 49500.00000 0 -10475882.899 -4146760.679 -22873934.307 10 0 60511 50400.00000 0 -8626302.102 -6307598.255 -23152532.816 10 0 60511 51300.00000 0 -6938963.027 -8605261.300 -22981084.255 10 0 60511 52200.00000 0 -5453599.483 -10981010.751 -22363011.565 10 0 60511 53100.00000 0 -4198778.828 -13370453.824 -21310414.989 10 0 60511 54000.00000 0 -3190893.061 -15706053.919 -19843830.381 10 0 60511 54900.00000 0 -2433674.487 -17919784.933 -17991824.417 10 0 60511 55800.00000 0 -1918254.610 -19945819.688 -15790434.842 10 0 60511 56700.00000 0 -1623762.071 -21723140.887 -13282466.769 10 0 60511 57600.00000 0 -1518432.968 -23197966.126 -10516658.644 10 0 60511 58500.00000 0 -1561185.456 -24325886.284 -7546734.164 10 0 60511 59400.00000 0 -1703591.104 -25073628.532 -4430358.481 10 0 60511 60300.00000 0 -1892158.946 -25420370.831 -1228018.965 10 0 60511 61200.00000 0 -2070835.108 -25358553.546 1998147.695 10 0 60511 62100.00000 0 -2183611.914 -24894154.773 5185559.219 10 0 60511 63000.00000 0 -2177135.927 -24046418.424 8272398.985 10 0 60511 63900.00000 0 -2003204.494 -22847046.903 11198811.248 10 0 60511 64800.00000 0 -1621045.204 -21338892.554 13908057.339 10 0 60511 65700.00000 0 -999281.835 -19574202.792 16347610.679 10 0 60511 66600.00000 0 -117503.629 -17612492.359 18470169.799 10 0 60511 67500.00000 0 1032628.698 -15518131.387 20234570.237 10 0 60511 68400.00000 0 2446787.423 -13357749.527 21606578.288 10 0 60511 69300.00000 0 4107918.759 -11197563.880 22559551.804 10 0 60511 70200.00000 0 5986724.038 -9100741.320 23074955.792 10 0 60511 71100.00000 0 8042662.519 -7124904.256 23142723.199 10 0 60511 72000.00000 0 10225435.610 -5319882.881 22761454.018 10 0 60511 72900.00000 0 12476892.286 -3725806.701 21938448.733 10 0 60511 73800.00000 0 14733277.992 -2371614.126 20689574.984 10 0 60511 74700.00000 0 16927734.719 -1274041.744 19038969.353 10 0 60511 75600.00000 0 18992949.290 -437134.980 17018579.110 10 0 60511 76500.00000 0 20863840.234 147699.676 14667551.780 10 0 60511 77400.00000 0 22480171.492 501103.341 12031483.345 10 0 60511 78300.00000 0 23788983.752 654659.330 9161538.788 10 0 60511 79200.00000 0 24746741.302 649320.474 6113461.365 10 0 60511 80100.00000 0 25321103.803 533435.818 2946489.549 10 0 60511 81000.00000 0 25492247.822 360460.593 -277797.276 10 0 60511 81900.00000 0 25253681.758 186447.063 -3496681.596 10 0 60511 82800.00000 0 24612519.122 67423.421 -6647534.847 10 0 60511 83700.00000 0 23589198.032 56772.912 -9669044.047 10 0 60511 84600.00000 0 22216658.533 202725.527 -12502413.146 10 0 60511 85500.00000 0 20539012.153 546069.782 -15092514.631 10 0 60512 0.00000 0 18609759.957 1118182.710 -17388967.935 10 0 60512 900.00000 0 16489633.363 1939462.939 -19347124.268 10 0 60512 1800.00000 0 14244151.387 3018233.311 -20928935.328 10 0 60512 2700.00000 0 11940993.744 4350161.216 -22103693.106 10 0 60512 3600.00000 0 9647302.593 5918221.080 -22848623.503 10 0 60512 4500.00000 0 7427024.835 7693201.455 -23149323.976 10 0 60512 5400.00000 0 5338405.920 9634735.836 -23000037.113 10 0 60512 6300.00000 0 3431739.156 11692814.455 -22403755.510 10 0 60512 7200.00000 0 1747463.549 13809714.077 -21372156.511 10 0 60512 8100.00000 0 314688.239 15922265.476 -19925368.664 10 0 60512 9000.00000 0 -849796.406 17964364.153 -18091574.775 10 0 60512 9900.00000 0 -1741981.384 19869619.754 -15906459.562 10 0 60512 10800.00000 0 -2370557.844 21574033.832 -13412512.742 10 0 60512 11700.00000 0 -2756297.229 23018594.467 -10658201.116 10 0 60512 12600.00000 0 -2930920.468 24151679.583 -7697025.730 10 0 60512 13500.00000 0 -2935505.278 24931168.848 -4586482.393 10 0 60512 14400.00000 0 -2818499.878 25326176.144 -1386945.730 10 0 60512 15300.00000 0 -2633427.876 25318330.418 1839501.531 10 0 60512 16200.00000 0 -2436381.925 24902551.629 5030271.277 10 0 60512 17100.00000 0 -2283412.491 24087289.598 8123481.369 10 0 60512 18000.00000 0 -2227922.346 22894215.989 11059152.188 10 0 60512 18900.00000 0 -2318177.012 21357382.484 13780365.269 10 0 60512 19800.00000 0 -2595036.380 19521880.363 16234361.855 10 0 60512 20700.00000 0 -3090003.314 17442057.404 18373560.448 10 0 60512 21600.00000 0 -3823671.757 15179366.208 20156474.167 10 0 60512 22500.00000 0 -4804640.064 12799933.209 21548510.736 10 0 60512 23400.00000 0 -6028935.945 10371948.981 22522640.210 10 0 60512 24300.00000 0 -7479978.098 7962987.670 23059918.017 10 0 60512 25200.00000 0 -9129077.420 5637366.115 23149853.598 10 0 60512 26100.00000 0 -10936458.239 3453651.580 22790617.603 10 0 60512 27000.00000 0 -12852758.498 1462420.757 21989083.546 10 0 60512 27900.00000 0 -14820947.861 -295637.571 20760702.649 10 0 60512 28800.00000 0 -16778585.134 -1791197.946 19129213.622 10 0 60512 29700.00000 0 -18660322.041 -3007290.824 17126192.105 10 0 60512 30600.00000 0 -20400549.742 -3939771.401 14790447.451 10 0 60512 31500.00000 0 -21936077.973 -4597245.388 12167277.573 10 0 60512 32400.00000 0 -23208734.848 -5000455.221 9307595.382 10 0 60512 33300.00000 0 -24167778.113 -5181152.799 6266943.115 10 0 60512 34200.00000 0 -24772016.024 -5180506.635 3104413.338 10 0 60512 35100.00000 0 -24991547.916 -5047111.143 -118502.369 10 0 60512 36000.00000 0 -24809050.238 -4834682.900 -3339114.345 10 0 60512 36900.00000 0 -24220552.880 -4599542.222 -6494761.310 10 0 60512 37800.00000 0 -23235672.231 -4397987.772 -9524037.590 10 0 60512 38700.00000 0 -21877290.424 -4283676.605 -12367996.265 10 0 60512 39600.00000 0 -20180693.794 -4305121.856 -14971303.733 10 0 60512 40500.00000 0 -18192206.666 -4503415.258 -17283322.429 10 0 60512 41400.00000 0 -15967377.730 -4910271.940 -19259099.932 10 0 60512 42300.00000 0 -13568795.396 -5546481.178 -20860244.887 10 0 60512 43200.00000 0 -11063624.066 -6420829.305 -22055672.732 10 0 60512 44100.00000 0 -8520964.438 -7529540.786 -22822206.932 10 0 60512 45000.00000 0 -6009148.270 -8856261.429 -23145024.513 10 0 60512 45900.00000 0 -3593080.304 -10372584.809 -23017937.855 10 0 60512 46800.00000 0 -1331737.696 -12039100.039 -22443507.956 10 0 60512 47700.00000 0 724069.633 -13806917.162 -21432987.572 10 0 60512 48600.00000 0 2533585.537 -15619606.438 -20006095.896 10 0 60512 49500.00000 0 4067563.881 -17415470.547 -18190629.553 10 0 60512 50400.00000 0 5309235.322 -19130054.756 -16021917.708 10 0 60512 51300.00000 0 6254746.105 -20698790.245 -13542132.034 10 0 60512 52200.00000 0 6913052.340 -22059660.153 -10799464.935 10 0 60512 53100.00000 0 7305276.013 -23155776.916 -7847192.013 10 0 60512 54000.00000 0 7463551.445 -23937763.153 -4742636.949 10 0 60512 54900.00000 0 7429412.188 -24365836.536 -1546058.865 10 0 60512 55800.00000 0 7251787.525 -24411511.399 1680516.168 10 0 60512 56700.00000 0 6984693.981 -24058845.921 4874496.776 10 0 60512 57600.00000 0 6684719.974 -23305182.658 7973937.765 10 0 60512 58500.00000 0 6408410.193 -22161351.449 10918737.932 10 0 60512 59400.00000 0 6209660.387 -20651326.130 13651801.114 10 0 60512 60300.00000 0 6137232.620 -18811349.219 16120138.249 10 0 60512 61200.00000 0 6232495.820 -16688560.874 18275889.421 10 0 60512 62100.00000 0 6527486.906 -14339188.870 20077246.639 10 0 60512 63000.00000 0 7043374.301 -11826374.394 21489260.053 10 0 60512 63900.00000 0 7789388.774 -9217723.436 22484512.574 10 0 60512 64800.00000 0 8762267.138 -6582684.697 23043650.378 10 0 60512 65700.00000 0 9946233.000 -3989861.922 23155759.403 10 0 60512 66600.00000 0 11313516.500 -1504371.319 22818580.681 10 0 60512 67500.00000 0 12825392.600 814647.253 22038560.230 10 0 60512 68400.00000 0 14433695.938 2916262.895 20830732.118 10 0 60512 69300.00000 0 16082750.271 4759638.055 19218436.268 10 0 60512 70200.00000 0 17711633.115 6315486.967 17232875.603 10 0 60512 71100.00000 0 19256681.832 7567047.905 14912520.063 10 0 60512 72000.00000 0 20654136.888 8510529.043 12302368.065 10 0 60512 72900.00000 0 21842811.759 9155009.641 9453078.840 10 0 60512 73800.00000 0 22766677.297 9521801.051 6419991.766 10 0 60512 74700.00000 0 23377251.400 9643294.772 3262051.454 10 0 60512 75600.00000 0 23635692.639 9561346.616 40659.424 10 0 60512 76500.00000 0 23514508.603 9325265.820 -3181524.950 10 0 60512 77400.00000 0 22998805.783 8989494.882 -6341810.195 10 0 60512 78300.00000 0 22087027.206 8611079.311 -9378700.488 10 0 60512 79200.00000 0 20791145.723 8247035.521 -12233100.527 10 0 60512 80100.00000 0 19136303.970 7951729.431 -14849473.027 10 0 60512 81000.00000 0 17159915.567 7774377.900 -17176925.448 10 0 60512 81900.00000 0 14910264.960 7756779.737 -19170204.181 10 0 60512 82800.00000 0 12444664.658 7931373.177 -20790576.487 10 0 60512 83700.00000 0 9827247.024 8319702.482 -22006582.974 10 0 60512 84600.00000 0 7126483.082 8931358.886 -22794646.246 10 0 60512 85500.00000 0 4412531.979 9763440.743 -23139524.307 10 0 60513 0.00000 0 1754531.704 10800555.638 -23034600.572 10 0 60513 900.00000 0 -782057.853 12015365.012 -22482005.377 10 0 60513 1800.00000 0 -3137945.982 13369646.920 -21492567.510 10 0 60513 2700.00000 0 -5262238.368 14815834.181 -20085597.091 10 0 60513 3600.00000 0 -7114305.434 16298961.991 -18288504.420 10 0 60513 4500.00000 0 -8665216.851 17758943.895 -16136262.560 10 0 60513 5400.00000 0 -9898683.874 19133080.606 -13670724.162 10 0 60513 6300.00000 0 -10811471.903 20358696.572 -10939805.859 10 0 60513 7200.00000 0 -11413267.852 21375793.744 -7996556.054 10 0 60513 8100.00000 0 -11726009.596 22129611.281 -4898124.191 10 0 60513 9000.00000 0 -11782707.309 22572983.843 -1704651.474 10 0 60513 9900.00000 0 -11625807.585 22668399.464 1521895.380 10 0 60513 10800.00000 0 -11305170.415 22389670.643 4718924.674 10 0 60513 11700.00000 0 -10875745.109 21723148.428 7824431.281 10 0 60513 12600.00000 0 -10395043.789 20668428.418 10778195.671 10 0 60513 13500.00000 0 -9920519.346 19238518.873 13522947.317 10 0 60513 14400.00000 0 -9506958.579 17459463.497 16005470.182 10 0 60513 15300.00000 0 -9204000.409 15369434.201 18177629.204 10 0 60513 16200.00000 0 -9053883.616 13017331.078 19997298.415 10 0 60513 17100.00000 0 -9089518.856 10460947.150 21429173.310 10 0 60513 18000.00000 0 -9332966.059 7764773.365 22445452.295 10 0 60513 18900.00000 0 -9794381.395 4997534.065 23026374.573 10 0 60513 19800.00000 0 -10471478.455 2229554.135 23160604.426 10 0 60513 20700.00000 0 -11349526.956 -469934.004 22845454.616 10 0 60513 21600.00000 0 -12401889.968 -3035432.956 22086944.459 10 0 60513 22500.00000 0 -13591078.269 -5407663.828 20899691.051 10 0 60513 23400.00000 0 -14870278.883 -7535788.368 19306635.089 10 0 60513 24300.00000 0 -16185294.904 -9379278.153 17338605.708 10 0 60513 25200.00000 0 -17476816.344 -10909353.564 15033731.752 10 0 60513 26100.00000 0 -18682927.458 -12109932.972 12436709.917 10 0 60513 27000.00000 0 -19741745.687 -12978052.769 9597943.030 10 0 60513 27900.00000 0 -20594081.268 -13523740.970 6572564.498 10 0 60513 28800.00000 0 -21186005.197 -13769349.963 3419367.546 10 0 60513 29700.00000 0 -21471216.588 -13748376.908 199659.984 10 0 60513 30600.00000 0 -21413108.549 -13503822.014 -3023932.882 10 0 60513 31500.00000 0 -20986444.217 -13086154.722 -6188693.253 10 0 60513 32400.00000 0 -20178570.922 -12550974.620 -9233039.023 10 0 60513 33300.00000 0 -18990119.960 -11956466.981 -12097730.288 10 0 60513 34200.00000 0 -17435161.510 -11360761.793 -14727029.668 10 0 60513 35100.00000 0 -15540807.163 -10819308.956 -17069792.990 10 0 60513 36000.00000 0 -13346276.055 -10382381.591 -19080468.423 10 0 60513 36900.00000 0 -10901463.500 -10092813.940 -20719984.290 10 0 60513 37800.00000 0 -8265071.855 -9984069.916 -21956508.238 10 0 60513 38700.00000 0 -5502381.673 -10078724.142 -22766063.232 10 0 60513 39600.00000 0 -2682756.068 -10387419.563 -23132988.803 10 0 60513 40500.00000 0 123017.773 -10908345.456 -23050239.244 10 0 60513 41400.00000 0 2845439.598 -11627257.567 -22519513.595 10 0 60513 42300.00000 0 5418947.279 -12518039.176 -21551215.536 10 0 60513 43200.00000 0 7784398.717 -13543779.200 -20164244.521 10 0 60513 44100.00000 0 9891282.248 -14658321.735 -18385622.617 10 0 60513 45000.00000 0 11699564.809 -15808221.667 -16249964.570 10 0 60513 45900.00000 0 13181102.344 -16935024.061 -13798801.555 10 0 60513 46800.00000 0 14320555.246 -17977771.426 -11079771.745 10 0 60513 47700.00000 0 15115772.273 -18875633.417 -8145693.465 10 0 60513 48600.00000 0 15577628.571 -19570548.415 -5053538.879 10 0 60513 49500.00000 0 15729326.212 -20009765.865 -1863328.111 10 0 60513 50400.00000 0 15605188.062 -20148182.415 1363034.672 10 0 60513 51300.00000 0 15248996.969 -19950373.542 4562960.619 10 0 60513 52200.00000 0 14711951.145 -19392235.101 7674387.720 10 0 60513 53100.00000 0 14050322.575 -18462165.591 10636980.971 10 0 60513 54000.00000 0 13322917.584 -17161739.168 13393298.073 10 0 60513 54900.00000 0 12588446.712 -15505840.687 15889898.282 10 0 60513 55800.00000 0 11902914.674 -13522256.496 18078373.301 10 0 60513 56700.00000 0 11317140.103 -11250737.271 19916280.706 10 0 60513 57600.00000 0 10874509.160 -8741571.030 21367962.464 10 0 60513 58500.00000 0 10609057.218 -6053724.674 22405233.193 10 0 60513 59400.00000 0 10543959.049 -3252630.156 23007925.447 10 0 60513 60300.00000 0 10690490.920 -407705.911 23164281.809 10 0 60513 61200.00000 0 11047508.393 2410284.819 22871186.375 10 0 60513 62100.00000 0 11601462.234 5131930.437 22134231.056 10 0 60513 63000.00000 0 12326952.466 7691811.540 20967615.018 10 0 60513 63900.00000 0 13187798.208 10030976.892 19393878.538 10 0 60513 64800.00000 0 14138579.362 12099152.777 17443475.580 10 0 60513 65700.00000 0 15126586.322 13856594.437 15154192.342 10 0 60513 66600.00000 0 16094096.512 15275502.797 12570422.077 10 0 60513 67500.00000 0 16980882.477 16340947.610 9742309.333 10 0 60513 68400.00000 0 17726846.054 17051258.580 6724779.514 10 0 60513 69300.00000 0 18274667.320 17417868.205 3576472.276 10 0 60513 70200.00000 0 18572355.953 17464613.202 358599.417 10 0 60513 71100.00000 0 18575596.305 17226524.271 -2866250.216 10 0 60513 72000.00000 0 18249785.941 16748155.774 -6035334.905 10 0 60513 72900.00000 0 17571680.145 16081526.523 -9086988.612 10 0 60513 73800.00000 0 16530571.625 15283759.620 -11961829.102 10 0 60513 74700.00000 0 15128954.278 14414522.013 -14603921.028 10 0 60513 75600.00000 0 13382641.857 13533372.967 -16961870.508 10 0 60513 76500.00000 0 11320335.636 12697134.465 -18989829.246 10 0 60513 77400.00000 0 8982658.455 11957395.331 -20648388.244 10 0 60513 78300.00000 0 6420695.188 11358254.950 -21905343.672 10 0 60513 79200.00000 0 3694100.336 10934402.000 -22736320.209 10 0 60513 80100.00000 0 868851.567 10709609.098 -23125240.137 10 0 60513 81000.00000 0 -1985257.378 10695706.421 -23064629.721 10 0 60513 81900.00000 0 -4797280.297 10892077.047 -22555757.526 10 0 60513 82800.00000 0 -7497828.252 11285694.555 -21608602.671 10 0 60513 83700.00000 0 -10021713.331 11851700.662 -20241654.183 10 0 60513 84600.00000 0 -12310417.392 12554497.927 -18481545.761 10 0 60513 85500.00000 0 -14314284.048 13349310.993 -16362533.349 99